This is the latest recevied weather packets stored in our database for station/object VE9LJW. If no packets are shown the sender has not sent any weather packets the latest 1 day(s).
| Time | Temp. | Humidity | Pressure | Rain* | Wind** | Luminosity | Snow |
|---|---|---|---|---|---|---|---|
| 1778115339 | 15.56° C | 96% | 1005.3 hPa | 0 mm | - | 0 W/m² | - |
| 1778115035 | 15.56° C | 96% | 1005.6 hPa | 0 mm | - | 0 W/m² | - |
| 1778114732 | 15.56° C | 96% | 1006 hPa | 0 mm | - | 0 W/m² | - |
| 1778114430 | 15.56° C | 96% | 1006.1 hPa | 0 mm | - | 0 W/m² | - |
| 1778114125 | 15.56° C | 95% | 1006.1 hPa | 0 mm | - | 0 W/m² | - |
| 1778113517 | 15.56° C | 95% | 1006.4 hPa | 0 mm | - | 0 W/m² | - |
| 1778110787 | 15.56° C | 95% | 1006.7 hPa | 0 mm | - | 0 W/m² | - |
| 1778109270 | 16.11° C | 95% | 1006.9 hPa | 0 mm | - | 0 W/m² | - |
| 1778108967 | 16.11° C | 94% | 1006.9 hPa | 0 mm | - | 0 W/m² | - |
| 1778108360 | 16.11° C | 94% | 1006.6 hPa | 0 mm | - | 2 W/m² | - |
| 1778104113 | 16.67° C | 92% | 1007 hPa | 0 mm | - | 9 W/m² | - |
| 1778102598 | 16.67° C | 91% | 1006.5 hPa | 0 mm | - | 17 W/m² | - |
| 1778102293 | 16.67° C | 91% | 1006.7 hPa | 0 mm | - | 18 W/m² | - |
| 1778100171 | 17.22° C | 90% | 1006.6 hPa | 0 mm | - | 44 W/m² | - |
| 1778099263 | 17.22° C | 90% | 1006.7 hPa | 0 mm | - | 54 W/m² | - |
| 1778098656 | 16.67° C | 90% | 1006.6 hPa | 0 mm | - | 42 W/m² | - |
| 1778095012 | 16.67° C | 90% | 1006.9 hPa | 0 mm | - | 127 W/m² | - |
| 1778094708 | 16.67° C | 90% | 1006.9 hPa | 0 mm | - | 126 W/m² | - |
| 1778094102 | 16.67° C | 91% | 1007 hPa | 0 mm | - | 120 W/m² | - |
| 1778092890 | 16.11° C | 90% | 1006.9 hPa | 0 mm | - | 237 W/m² | - |
| 1778091677 | 15.56° C | 91% | 1007 hPa | 0 mm | - | 258 W/m² | - |
| 1778091375 | 16.11° C | 91% | 1007.1 hPa | 0 mm | - | 274 W/m² | - |
| 1778091072 | 15.56° C | 91% | 1007.3 hPa | 0 mm | - | 272 W/m² | - |
| 1778090465 | 15.56° C | 91% | 1007.2 hPa | 0 mm | - | 264 W/m² | - |
| 1778089252 | 15.56° C | 92% | 1007.7 hPa | 0 mm | - | 186 W/m² | - |
* Rain latest hour (hover to see other rain measurements)
** Current wind speed in m/s (hover to see current wind gust speed)